N31NC KTEB-CYQX

Flight info

Callsign N31NC
Flight time N/A
Altitude 37000
Route BREZY V39 CMK/N0469F370 DCT MERIT DCT HFD DCT PUT DCT BOS DCT TUSKY DCT UMETI
Aircraft CL60/M-SBDE1E2E3FGHIJ1J4J5J7M3RWXYZ/LB1V1D1

Departure

Time 2026-05-04 23:03
Airport Teterboro Airport (KTEB)

Arrival

Time N/A
Airport Gander International Airport (CYQX)
Time Latitude Longitude Altitude Speed Heading
2026-05-04 22:23 40.85033 -74.06825 17 ft 0 kts 43°
2026-05-04 22:57 40.85033 -74.06824 17 ft 0 kts 43°
2026-05-04 22:57 40.85041 -74.06808 17 ft 4 kts 75°
2026-05-04 22:58 40.85041 -74.06747 17 ft 8 kts 92°
2026-05-04 22:58 40.85064 -74.06667 17 ft 11 kts 46°
2026-05-04 22:58 40.85127 -74.06576 17 ft 15 kts 49°
2026-05-04 22:58 40.85206 -74.06458 17 ft 18 kts 47°
2026-05-04 22:59 40.85291 -74.06335 17 ft 19 kts 47°
2026-05-04 22:59 40.85390 -74.06190 17 ft 19 kts 47°
2026-05-04 22:59 40.85447 -74.06108 16 ft 13 kts 47°
2026-05-04 22:59 40.85538 -74.06060 16 ft 16 kts
2026-05-04 23:00 40.85661 -74.06052 16 ft 17 kts
2026-05-04 23:00 40.85757 -74.06044 16 ft 12 kts 17°
2026-05-04 23:00 40.85781 -74.05944 17 ft 13 kts 95°
2026-05-04 23:00 40.85776 -74.05803 17 ft 16 kts 88°
2026-05-04 23:01 40.85796 -74.05660 16 ft 9 kts 82°
2026-05-04 23:01 40.85802 -74.05603 16 ft 5 kts 82°
2026-05-04 23:01 40.85809 -74.05539 16 ft 8 kts 81°
2026-05-04 23:01 40.85798 -74.05456 16 ft 6 kts 139°
2026-05-04 23:02 40.85761 -74.05428 16 ft 4 kts 214°
2026-05-04 23:02 40.85748 -74.05447 16 ft 16 kts 229°
2026-05-04 23:02 40.85439 -74.05901 17 ft 117 kts 228°
2026-05-04 23:02 40.84758 -74.06917 402 ft 166 kts 226°
2026-05-04 23:03 40.83962 -74.08120 1275 ft 186 kts 229°
2026-05-04 23:03 40.83072 -74.09467 1533 ft 195 kts 232°
2026-05-04 23:03 40.82470 -74.11034 1525 ft 192 kts 249°
2026-05-04 23:03 40.82024 -74.12692 1530 ft 191 kts 249°
2026-05-04 23:04 40.81571 -74.14344 1523 ft 190 kts 248°
2026-05-04 23:04 40.81314 -74.16072 1520 ft 193 kts 267°
2026-05-04 23:04 40.81347 -74.17846 1519 ft 193 kts 268°
2026-05-04 23:04 40.81381 -74.19733 1759 ft 225 kts 268°
2026-05-04 23:05 40.81416 -74.21865 2810 ft 243 kts 269°
2026-05-04 23:05 40.81464 -74.24044 4128 ft 249 kts 272°
2026-05-04 23:05 40.81958 -74.26266 5211 ft 266 kts 298°
2026-05-04 23:05 40.83279 -74.28010 5772 ft 277 kts 327°
2026-05-04 23:06 40.85093 -74.28818 5989 ft 280 kts 345°
2026-05-04 23:06 40.87024 -74.29270 6019 ft 276 kts 347°
2026-05-04 23:06 40.88911 -74.29683 6021 ft 274 kts 347°
2026-05-04 23:06 40.90784 -74.30094 6023 ft 273 kts 347°
2026-05-04 23:07 40.92649 -74.30501 6022 ft 272 kts 347°
2026-05-04 23:07 40.94539 -74.30853 6021 ft 274 kts 354°
2026-05-04 23:07 40.96440 -74.30500 6017 ft 281 kts 16°
2026-05-04 23:07 40.98164 -74.29242 6021 ft 289 kts 31°
2026-05-04 23:08 40.99852 -74.27724 6328 ft 291 kts 31°
2026-05-04 23:08 41.01517 -74.26234 6972 ft 286 kts 30°
2026-05-04 23:08 41.03162 -74.24764 7717 ft 287 kts 30°
2026-05-04 23:08 41.04801 -74.23300 8464 ft 291 kts 30°
2026-05-04 23:09 41.06490 -74.21793 9214 ft 293 kts 30°
2026-05-04 23:09 41.08184 -74.20280 9783 ft 299 kts 30°
2026-05-04 23:09 41.10007 -74.18660 9998 ft 331 kts 30°
2026-05-04 23:09 41.11992 -74.16895 10021 ft 354 kts 30°
2026-05-04 23:10 41.14024 -74.14987 10005 ft 357 kts 37°
2026-05-04 23:10 41.15677 -74.12510 10046 ft 378 kts 55°
2026-05-04 23:10 41.16760 -74.09224 10933 ft 395 kts 71°
2026-05-04 23:10 41.17525 -74.05744 12200 ft 397 kts 72°
2026-05-04 23:11 41.18297 -74.02227 13290 ft 402 kts 71°
2026-05-04 23:11 41.19079 -73.98674 14301 ft 410 kts 72°
2026-05-04 23:11 41.19873 -73.95056 15317 ft 415 kts 71°
2026-05-04 23:11 41.20686 -73.91345 16308 ft 420 kts 71°
2026-05-04 23:12 41.21509 -73.87588 16794 ft 429 kts 71°
2026-05-04 23:12 41.22335 -73.83809 16976 ft 430 kts 71°
2026-05-04 23:12 41.23169 -73.79989 17007 ft 434 kts 71°
2026-05-04 23:12 41.24020 -73.76098 17532 ft 446 kts 71°
2026-05-04 23:13 41.24878 -73.72160 18595 ft 445 kts 71°
2026-05-04 23:13 41.25732 -73.68240 19614 ft 445 kts 71°
2026-05-04 23:13 41.26589 -73.64298 20476 ft 448 kts 71°
2026-05-04 23:13 41.27454 -73.60314 21333 ft 451 kts 71°
2026-05-04 23:14 41.28352 -73.56253 22094 ft 456 kts 70°
2026-05-04 23:14 41.29283 -73.52219 22820 ft 460 kts 69°
2026-05-04 23:14 41.30232 -73.48109 23503 ft 465 kts 70°
2026-05-04 23:14 41.31185 -73.43973 24162 ft 469 kts 69°
2026-05-04 23:15 41.32141 -73.39812 24863 ft 472 kts 69°
2026-05-04 23:15 41.33107 -73.35602 25482 ft 476 kts 69°
2026-05-04 23:15 41.34067 -73.31403 26067 ft 479 kts 69°
2026-05-04 23:15 41.35038 -73.27156 26640 ft 481 kts 70°
2026-05-04 23:16 41.35997 -73.22943 27506 ft 476 kts 69°
2026-05-04 23:16 41.36946 -73.18767 28301 ft 472 kts 69°
2026-05-04 23:16 41.37925 -73.14610 29071 ft 466 kts 65°
2026-05-04 23:16 41.39368 -73.10849 29765 ft 457 kts 54°
2026-05-04 23:17 41.40989 -73.07207 30165 ft 461 kts 54°
2026-05-04 23:17 41.42621 -73.03516 30465 ft 466 kts 54°
2026-05-04 23:17 41.44275 -72.99768 30766 ft 470 kts 54°
2026-05-04 23:17 41.45924 -72.96026 31119 ft 472 kts 54°
2026-05-04 23:18 41.47578 -72.92267 31494 ft 472 kts 54°
2026-05-04 23:18 41.49236 -72.88493 31977 ft 470 kts 54°
2026-05-04 23:18 41.50874 -72.84759 32417 ft 468 kts 54°
2026-05-04 23:18 41.52504 -72.81039 32924 ft 465 kts 53°
2026-05-04 23:19 41.54131 -72.77323 33356 ft 463 kts 53°
2026-05-04 23:19 41.55751 -72.73618 33778 ft 462 kts 53°
2026-05-04 23:19 41.57344 -72.69971 34143 ft 461 kts 53°
2026-05-04 23:19 41.58960 -72.66267 34523 ft 460 kts 53°
2026-05-04 23:20 41.60566 -72.62588 34772 ft 461 kts 53°
2026-05-04 23:20 41.62174 -72.58897 35020 ft 462 kts 53°
2026-05-04 23:20 41.63795 -72.55170 35238 ft 462 kts 53°
2026-05-04 23:20 41.65427 -72.51511 35376 ft 463 kts 52°
2026-05-04 23:21 41.67094 -72.47822 35522 ft 465 kts 52°
2026-05-04 23:21 41.68767 -72.44113 35684 ft 466 kts 52°
2026-05-04 23:21 41.70441 -72.40397 35806 ft 468 kts 53°
2026-05-04 23:21 41.72120 -72.36664 35947 ft 469 kts 53°
2026-05-04 23:22 41.73794 -72.32938 36081 ft 470 kts 53°
2026-05-04 23:22 41.75472 -72.29197 36223 ft 470 kts 53°
2026-05-04 23:22 41.77148 -72.25455 36356 ft 471 kts 54°
2026-05-04 23:22 41.78845 -72.21662 36475 ft 472 kts 54°
2026-05-04 23:23 41.80529 -72.17893 36628 ft 473 kts 54°
2026-05-04 23:23 41.82198 -72.14153 36792 ft 474 kts 54°
2026-05-04 23:23 41.83906 -72.10320 36908 ft 476 kts 54°
2026-05-04 23:23 41.85598 -72.06521 36921 ft 481 kts 54°
2026-05-04 23:24 41.89050 -71.98749 36920 ft 484 kts 54°
2026-05-04 23:24 41.92474 -71.91018 36928 ft 482 kts 54°
2026-05-04 23:25 41.95894 -71.83346 36902 ft 482 kts 52°
2026-05-04 23:25 41.99492 -71.75781 36900 ft 480 kts 52°
2026-05-04 23:26 42.03095 -71.68201 36896 ft 482 kts 52°
2026-05-04 23:26 42.06673 -71.60649 36892 ft 482 kts 52°
2026-05-04 23:27 42.10266 -71.53050 36888 ft 482 kts 52°
2026-05-04 23:27 42.13844 -71.45461 36882 ft 482 kts 52°
2026-05-04 23:28 42.17420 -71.37858 36877 ft 482 kts 52°
2026-05-04 23:28 42.21001 -71.30222 36882 ft 482 kts 53°
2026-05-04 23:29 42.24582 -71.22572 36877 ft 484 kts 53°
2026-05-04 23:29 42.28144 -71.14940 36876 ft 484 kts 53°
2026-05-04 23:30 42.31733 -71.07231 37124 ft 487 kts 53°
2026-05-04 23:30 42.33551 -71.03319 36925 ft 489 kts 52°
2026-05-04 23:30 42.35319 -70.99436 37032 ft 481 kts 55°
2026-05-04 23:31 42.38236 -70.91235 36537 ft 491 kts 62°
2026-05-04 23:31 42.39569 -70.87063 37089 ft 484 kts 62°
2026-05-04 23:31 42.40921 -70.82848 36946 ft 492 kts 62°
2026-05-04 23:32 42.43638 -70.74373 36880 ft 489 kts 62°
2026-05-04 23:32 42.46330 -70.65970 36869 ft 488 kts 61°
2026-05-04 23:33 42.49018 -70.57571 36882 ft 488 kts 61°
2026-05-04 23:33 42.51702 -70.49169 36883 ft 489 kts 62°
2026-05-04 23:34 42.54395 -70.40725 36891 ft 490 kts 62°
2026-05-04 23:34 42.57097 -70.32229 36891 ft 490 kts 62°
2026-05-04 23:35 42.59782 -70.23765 36873 ft 491 kts 62°
2026-05-04 23:35 42.62468 -70.15273 36874 ft 492 kts 62°
2026-05-04 23:36 42.65149 -70.06776 36875 ft 492 kts 62°
2026-05-04 23:36 42.67843 -69.98211 36868 ft 491 kts 62°
2026-05-04 23:37 42.70512 -69.89697 36871 ft 492 kts 62°
2026-05-04 23:37 42.73165 -69.81213 36883 ft 492 kts 62°
2026-05-04 23:38 42.75835 -69.72647 36865 ft 494 kts 62°
2026-05-04 23:38 42.78498 -69.64078 36868 ft 494 kts 62°
2026-05-04 23:39 42.81169 -69.55454 36864 ft 495 kts 63°
2026-05-04 23:39 42.83820 -69.46865 36879 ft 495 kts 62°
2026-05-04 23:40 42.86486 -69.38203 36892 ft 497 kts 62°
2026-05-04 23:40 42.89132 -69.29572 36883 ft 496 kts 63°
2026-05-04 23:41 42.91772 -69.20936 36882 ft 497 kts 64°
2026-05-04 23:41 42.94435 -69.12201 36888 ft 499 kts 63°
2026-05-04 23:42 42.97081 -69.03487 36877 ft 500 kts 63°
2026-05-04 23:42 42.99722 -68.94760 36892 ft 500 kts 63°
2026-05-04 23:43 43.02375 -68.85967 36897 ft 500 kts 63°
2026-05-04 23:43 43.04998 -68.77243 36888 ft 501 kts 64°
2026-05-04 23:44 43.07645 -68.68408 36887 ft 502 kts 64°
2026-05-04 23:44 43.10270 -68.59616 36893 ft 503 kts 64°
2026-05-04 23:45 43.12904 -68.50767 36887 ft 503 kts 64°
2026-05-04 23:45 43.15517 -68.41959 36884 ft 504 kts 64°
2026-05-04 23:46 43.18151 -68.33047 36878 ft 505 kts 65°
2026-05-04 23:46 43.20757 -68.24200 36882 ft 505 kts 65°
2026-05-04 23:47 43.23383 -68.15255 36873 ft 507 kts 65°
2026-05-04 23:47 43.25994 -68.06326 36875 ft 507 kts 65°
2026-05-04 23:48 43.28598 -67.97394 36873 ft 507 kts 66°
2026-05-04 23:48 43.31205 -67.88416 36872 ft 507 kts 65°
2026-05-04 23:49 43.33798 -67.79461 36877 ft 507 kts 66°
2026-05-04 23:49 43.36381 -67.70503 36879 ft 509 kts 66°
2026-05-04 23:50 43.38976 -67.61477 36873 ft 510 kts 66°
2026-05-04 23:50 43.41571 -67.52412 36886 ft 511 kts 66°
2026-05-04 23:51 43.44158 -67.43345 36886 ft 512 kts 65°
2026-05-04 23:51 43.46759 -67.34197 36883 ft 514 kts 67°
2026-05-04 23:52 43.49345 -67.25067 36897 ft 515 kts 66°
2026-05-04 23:52 43.51928 -67.15918 36891 ft 516 kts 67°
2026-05-04 23:53 43.54503 -67.06763 36897 ft 517 kts 66°
2026-05-04 23:53 43.57801 -66.97993 36897 ft 512 kts 52°
2026-05-04 23:54 43.62167 -66.90364 36890 ft 510 kts 47°
2026-05-04 23:54 43.66614 -66.82790 36882 ft 510 kts 47°
2026-05-04 23:55 43.71091 -66.75153 36888 ft 510 kts 47°
2026-05-04 23:56 43.77800 -66.63685 36875 ft 512 kts 47°
2026-05-04 23:56 43.82241 -66.56074 36872 ft 513 kts 47°
2026-05-04 23:57 43.86744 -66.48339 36882 ft 513 kts 47°
2026-05-04 23:57 43.91193 -66.40678 36877 ft 514 kts 47°
2026-05-04 23:58 43.95659 -66.32970 36874 ft 514 kts 48°
2026-05-04 23:58 44.00135 -66.25226 36871 ft 516 kts 48°
2026-05-04 23:59 44.04641 -66.17454 36878 ft 517 kts 47°
2026-05-04 23:59 44.09174 -66.09701 36653 ft 520 kts 47°